Year,Month,Day,Hour,Minute,Value (Times are PST for temperature in C)
2015,06,25,00,00,14.20
2015,06,25,00,01,14.20
2015,06,25,00,02,14.20
2015,06,25,00,03,14.20
2015,06,25,00,04,14.10
2015,06,25,00,05,14.10
2015,06,25,00,06,14.10
2015,06,25,00,07,14.10
2015,06,25,00,08,14.00
2015,06,25,00,09,14.00
2015,06,25,00,10,13.90
2015,06,25,00,11,13.90
2015,06,25,00,12,13.90
2015,06,25,00,13,13.90
2015,06,25,00,14,13.90
2015,06,25,00,15,13.80
2015,06,25,00,16,13.80
2015,06,25,00,17,13.80
2015,06,25,00,18,13.80
2015,06,25,00,19,13.80
2015,06,25,00,20,13.80
2015,06,25,00,21,13.70
2015,06,25,00,22,13.70
2015,06,25,00,23,13.70
2015,06,25,00,24,13.70
2015,06,25,00,25,13.70
2015,06,25,00,26,13.70
2015,06,25,00,27,13.70
2015,06,25,00,28,13.70
2015,06,25,00,29,13.60
2015,06,25,00,30,13.60
2015,06,25,00,31,13.60
2015,06,25,00,32,13.60
2015,06,25,00,33,13.60
2015,06,25,00,34,13.60
2015,06,25,00,35,13.60
2015,06,25,00,36,13.60
2015,06,25,00,37,13.60
2015,06,25,00,38,13.60
2015,06,25,00,39,13.60
2015,06,25,00,40,13.60
2015,06,25,00,41,13.60
2015,06,25,00,42,13.60
2015,06,25,00,43,13.60
2015,06,25,00,44,13.60
2015,06,25,00,45,13.60
2015,06,25,00,46,13.60
2015,06,25,00,47,13.60
2015,06,25,00,48,13.60
2015,06,25,00,49,13.60
2015,06,25,00,50,13.50
2015,06,25,00,51,13.50
2015,06,25,00,52,13.50
2015,06,25,00,53,13.50
2015,06,25,00,54,13.50
2015,06,25,00,55,13.40
2015,06,25,00,56,13.40
2015,06,25,00,57,13.40
2015,06,25,00,58,13.40
2015,06,25,00,59,13.40
2015,06,25,01,00,13.40
2015,06,25,01,01,13.40
2015,06,25,01,02,13.30
2015,06,25,01,03,13.30
2015,06,25,01,04,13.30
2015,06,25,01,05,13.30
2015,06,25,01,06,13.30
2015,06,25,01,07,13.30
2015,06,25,01,08,13.30
2015,06,25,01,09,13.30
2015,06,25,01,10,13.30
2015,06,25,01,11,13.30
2015,06,25,01,12,13.20
2015,06,25,01,13,13.20
2015,06,25,01,14,13.20
2015,06,25,01,15,13.20
2015,06,25,01,16,13.20
2015,06,25,01,17,13.20
2015,06,25,01,18,13.10
2015,06,25,01,19,13.10
2015,06,25,01,20,13.10
2015,06,25,01,21,13.10
2015,06,25,01,22,13.10
2015,06,25,01,23,13.10
2015,06,25,01,24,13.10
2015,06,25,01,25,13.10
2015,06,25,01,26,13.10
2015,06,25,01,27,13.10
2015,06,25,01,28,13.10
2015,06,25,01,29,13.10
2015,06,25,01,30,13.00
2015,06,25,01,31,13.00
2015,06,25,01,32,13.00
2015,06,25,01,33,13.00
2015,06,25,01,34,13.00
2015,06,25,01,35,13.00
2015,06,25,01,36,13.00
2015,06,25,01,37,13.00
2015,06,25,01,38,12.90
2015,06,25,01,39,12.90
2015,06,25,01,40,12.90
2015,06,25,01,41,12.90
2015,06,25,01,42,12.90
2015,06,25,01,43,12.90
2015,06,25,01,44,12.90
2015,06,25,01,45,12.90
2015,06,25,01,46,12.90
2015,06,25,01,47,12.90
2015,06,25,01,48,12.90
2015,06,25,01,49,12.80
2015,06,25,01,50,12.80
2015,06,25,01,51,12.80
2015,06,25,01,52,12.80
2015,06,25,01,53,12.80
2015,06,25,01,54,12.80
2015,06,25,01,55,12.80
2015,06,25,01,56,12.80
2015,06,25,01,57,12.70
2015,06,25,01,58,12.70
2015,06,25,01,59,12.70
2015,06,25,02,00,12.70
2015,06,25,02,01,12.70
2015,06,25,02,02,12.70
2015,06,25,02,03,12.70
2015,06,25,02,04,12.70
2015,06,25,02,05,12.70
2015,06,25,02,06,12.70
2015,06,25,02,07,12.60
2015,06,25,02,08,12.60
2015,06,25,02,09,12.60
2015,06,25,02,10,12.60
2015,06,25,02,11,12.60
2015,06,25,02,12,12.60
2015,06,25,02,13,12.60
2015,06,25,02,14,12.60
2015,06,25,02,15,12.60
2015,06,25,02,16,12.60
2015,06,25,02,17,12.60
2015,06,25,02,18,12.60
2015,06,25,02,19,12.60
2015,06,25,02,20,12.60
2015,06,25,02,21,12.60
2015,06,25,02,22,12.60
2015,06,25,02,23,12.60
2015,06,25,02,24,12.60
2015,06,25,02,25,12.60
2015,06,25,02,26,12.60
2015,06,25,02,27,12.60
2015,06,25,02,28,12.60
2015,06,25,02,29,12.60
2015,06,25,02,30,12.60
2015,06,25,02,31,12.60
2015,06,25,02,32,12.60
2015,06,25,02,33,12.60
2015,06,25,02,34,12.60
2015,06,25,02,35,12.60
2015,06,25,02,36,12.60
2015,06,25,02,37,12.60
2015,06,25,02,38,12.60
2015,06,25,02,39,12.60
2015,06,25,02,40,12.50
2015,06,25,02,41,12.50
2015,06,25,02,42,12.50
2015,06,25,02,43,12.50
2015,06,25,02,44,12.50
2015,06,25,02,45,12.50
2015,06,25,02,46,12.50
2015,06,25,02,47,12.50
2015,06,25,02,48,12.50
2015,06,25,02,49,12.50
2015,06,25,02,50,12.50
2015,06,25,02,51,12.50
2015,06,25,02,52,12.40
2015,06,25,02,53,12.40
2015,06,25,02,54,12.40
2015,06,25,02,55,12.40
2015,06,25,02,56,12.40
2015,06,25,02,57,12.30
2015,06,25,02,58,12.30
2015,06,25,02,59,12.30
2015,06,25,03,00,12.30
2015,06,25,03,01,12.30
2015,06,25,03,02,12.30
2015,06,25,03,03,12.30
2015,06,25,03,04,12.30
2015,06,25,03,05,12.30
2015,06,25,03,06,12.30
2015,06,25,03,07,12.30
2015,06,25,03,08,12.30
2015,06,25,03,09,12.30
2015,06,25,03,10,12.30
2015,06,25,03,11,12.30
2015,06,25,03,12,12.30
2015,06,25,03,13,12.30
2015,06,25,03,14,12.40
2015,06,25,03,15,12.40
2015,06,25,03,16,12.40
2015,06,25,03,17,12.40
2015,06,25,03,18,12.40
2015,06,25,03,19,12.40
2015,06,25,03,20,12.30
2015,06,25,03,21,12.30
2015,06,25,03,22,12.30
2015,06,25,03,23,12.30
2015,06,25,03,24,12.30
2015,06,25,03,25,12.30
2015,06,25,03,26,12.30
2015,06,25,03,27,12.30
2015,06,25,03,28,12.30
2015,06,25,03,29,12.30
2015,06,25,03,30,12.30
2015,06,25,03,31,12.30
2015,06,25,03,32,12.30
2015,06,25,03,33,12.30
2015,06,25,03,34,12.30
2015,06,25,03,35,12.30
2015,06,25,03,36,12.20
2015,06,25,03,37,12.20
2015,06,25,03,38,12.20
2015,06,25,03,39,12.20
2015,06,25,03,40,12.20
2015,06,25,03,41,12.20
2015,06,25,03,42,12.20
2015,06,25,03,43,12.20
2015,06,25,03,44,12.20
2015,06,25,03,45,12.20
2015,06,25,03,46,12.20
2015,06,25,03,47,12.20
2015,06,25,03,48,12.20
2015,06,25,03,49,12.20
2015,06,25,03,50,12.20
2015,06,25,03,51,12.10
2015,06,25,03,52,12.10
2015,06,25,03,53,12.10
2015,06,25,03,54,12.10
2015,06,25,03,55,12.10
2015,06,25,03,56,12.00
2015,06,25,03,57,12.00
2015,06,25,03,58,11.90
2015,06,25,03,59,11.90
2015,06,25,04,00,11.90
2015,06,25,04,01,11.90
2015,06,25,04,02,11.90
2015,06,25,04,03,11.90
2015,06,25,04,04,11.90
2015,06,25,04,05,11.90
2015,06,25,04,06,11.90
2015,06,25,04,07,11.90
2015,06,25,04,08,11.90
2015,06,25,04,09,12.00
2015,06,25,04,10,12.00
2015,06,25,04,11,12.00
2015,06,25,04,12,12.00
2015,06,25,04,13,12.00
2015,06,25,04,14,12.00
2015,06,25,04,15,12.00
2015,06,25,04,16,12.00
2015,06,25,04,17,12.10
2015,06,25,04,18,12.10
2015,06,25,04,19,12.10
2015,06,25,04,20,12.10
2015,06,25,04,21,12.10
2015,06,25,04,22,12.10
2015,06,25,04,23,12.10
2015,06,25,04,24,12.10
2015,06,25,04,25,12.10
2015,06,25,04,26,12.20
2015,06,25,04,27,12.10
2015,06,25,04,28,12.10
2015,06,25,04,29,12.10
2015,06,25,04,30,12.10
2015,06,25,04,31,12.00
2015,06,25,04,32,12.00
2015,06,25,04,33,12.00
2015,06,25,04,34,12.00
2015,06,25,04,35,12.00
2015,06,25,04,36,11.90
2015,06,25,04,37,11.90
2015,06,25,04,38,12.00
2015,06,25,04,39,12.00
2015,06,25,04,40,12.00
2015,06,25,04,41,12.00
2015,06,25,04,42,12.10
2015,06,25,04,43,12.10
2015,06,25,04,44,12.10
2015,06,25,04,45,12.10
2015,06,25,04,46,12.10
2015,06,25,04,47,12.10
2015,06,25,04,48,12.10
2015,06,25,04,49,12.10
2015,06,25,04,50,12.10
2015,06,25,04,51,12.20
2015,06,25,04,52,12.10
2015,06,25,04,53,12.10
2015,06,25,04,54,12.10
2015,06,25,04,55,12.10
2015,06,25,04,56,12.10
2015,06,25,04,57,12.10
2015,06,25,04,58,12.10
2015,06,25,04,59,12.10
2015,06,25,05,00,12.10
2015,06,25,05,01,12.10
2015,06,25,05,02,12.10
2015,06,25,05,03,12.10
2015,06,25,05,04,12.10
2015,06,25,05,05,12.10
2015,06,25,05,06,12.10
2015,06,25,05,07,12.10
2015,06,25,05,08,12.10
2015,06,25,05,09,12.00
2015,06,25,05,10,12.00
2015,06,25,05,11,12.00
2015,06,25,05,12,12.10
2015,06,25,05,13,12.10
2015,06,25,05,14,12.10
2015,06,25,05,15,12.10
2015,06,25,05,16,12.10
2015,06,25,05,17,12.10
2015,06,25,05,18,12.10
2015,06,25,05,19,12.10
2015,06,25,05,20,12.10
2015,06,25,05,21,12.10
2015,06,25,05,22,12.10
2015,06,25,05,23,12.10
2015,06,25,05,24,12.10
2015,06,25,05,25,12.10
2015,06,25,05,26,12.10
2015,06,25,05,27,12.10
2015,06,25,05,28,12.10
2015,06,25,05,29,12.10
2015,06,25,05,30,12.10
2015,06,25,05,31,12.10
2015,06,25,05,32,12.10
2015,06,25,05,33,12.00
2015,06,25,05,34,12.00
2015,06,25,05,35,12.00
2015,06,25,05,36,12.00
2015,06,25,05,37,11.90
2015,06,25,05,38,11.90
2015,06,25,05,39,11.90
2015,06,25,05,40,11.90
2015,06,25,05,41,11.90
2015,06,25,05,42,11.90
2015,06,25,05,43,11.90
2015,06,25,05,44,11.90
2015,06,25,05,45,11.90
2015,06,25,05,46,11.90
2015,06,25,05,47,11.90
2015,06,25,05,48,12.00
2015,06,25,05,49,12.00
2015,06,25,05,50,12.10
2015,06,25,05,51,12.10
2015,06,25,05,52,12.10
2015,06,25,05,53,12.10
2015,06,25,05,54,12.10
2015,06,25,05,55,12.10
2015,06,25,05,56,12.10
2015,06,25,05,57,12.10
2015,06,25,05,58,12.10
2015,06,25,05,59,12.10
2015,06,25,06,00,12.00
2015,06,25,06,01,12.00
2015,06,25,06,02,12.10
2015,06,25,06,03,12.10
2015,06,25,06,04,12.10
2015,06,25,06,05,12.10
2015,06,25,06,06,12.10
2015,06,25,06,07,12.10
2015,06,25,06,08,12.10
2015,06,25,06,09,12.10
2015,06,25,06,10,12.10
2015,06,25,06,11,12.10
2015,06,25,06,12,12.10
2015,06,25,06,13,12.10
2015,06,25,06,14,12.10
2015,06,25,06,15,12.10
2015,06,25,06,16,12.10
2015,06,25,06,17,12.20
2015,06,25,06,18,12.20
2015,06,25,06,19,12.20
2015,06,25,06,20,12.20
2015,06,25,06,21,12.20
2015,06,25,06,22,12.20
2015,06,25,06,23,12.20
2015,06,25,06,24,12.30
2015,06,25,06,25,12.30
2015,06,25,06,26,12.30
2015,06,25,06,27,12.30
2015,06,25,06,28,12.30
2015,06,25,06,29,12.40
2015,06,25,06,30,12.40
2015,06,25,06,31,12.40
2015,06,25,06,32,12.50
2015,06,25,06,33,12.60
2015,06,25,06,34,12.60
2015,06,25,06,35,12.60
2015,06,25,06,36,12.70
2015,06,25,06,37,12.70
2015,06,25,06,38,12.80
2015,06,25,06,39,12.80
2015,06,25,06,40,12.80
2015,06,25,06,41,12.90
2015,06,25,06,42,12.90
2015,06,25,06,43,12.90
2015,06,25,06,44,13.00
2015,06,25,06,45,13.00
2015,06,25,06,46,13.10
2015,06,25,06,47,13.10
2015,06,25,06,48,13.10
2015,06,25,06,49,13.20
2015,06,25,06,50,13.20
2015,06,25,06,51,13.20
2015,06,25,06,52,13.30
2015,06,25,06,53,13.30
2015,06,25,06,54,13.40
2015,06,25,06,55,13.40
2015,06,25,06,56,13.50
2015,06,25,06,57,13.60
2015,06,25,06,58,13.60
2015,06,25,06,59,13.70
2015,06,25,07,00,13.80
2015,06,25,07,01,13.80
2015,06,25,07,02,13.90
2015,06,25,07,03,14.00
2015,06,25,07,04,14.00
2015,06,25,07,05,14.10
2015,06,25,07,06,14.20
2015,06,25,07,07,14.30
2015,06,25,07,08,14.40
2015,06,25,07,09,14.40
2015,06,25,07,10,14.50
2015,06,25,07,11,14.60
2015,06,25,07,12,14.70
2015,06,25,07,13,14.70
2015,06,25,07,14,14.80
2015,06,25,07,15,14.90
2015,06,25,07,16,15.00
2015,06,25,07,17,15.10
2015,06,25,07,18,15.20
2015,06,25,07,19,15.30
2015,06,25,07,20,15.40
2015,06,25,07,21,15.60
2015,06,25,07,22,15.70
2015,06,25,07,23,15.80
2015,06,25,07,24,15.90
2015,06,25,07,25,16.00
2015,06,25,07,26,16.10
2015,06,25,07,27,16.20
2015,06,25,07,28,16.30
2015,06,25,07,29,16.40
2015,06,25,07,30,16.60
2015,06,25,07,31,16.70
2015,06,25,07,32,16.80
2015,06,25,07,33,16.90
2015,06,25,07,34,17.00
2015,06,25,07,35,17.00
2015,06,25,07,36,17.10
2015,06,25,07,37,17.00
2015,06,25,07,38,17.00
2015,06,25,07,39,16.90
2015,06,25,07,40,16.80
2015,06,25,07,41,16.70
2015,06,25,07,42,16.60
2015,06,25,07,43,16.40
2015,06,25,07,44,16.30
2015,06,25,07,45,16.20
2015,06,25,07,46,16.10
2015,06,25,07,47,16.00
2015,06,25,07,48,16.00
2015,06,25,07,49,15.90
2015,06,25,07,50,15.80
2015,06,25,07,51,15.80
2015,06,25,07,52,15.70
2015,06,25,07,53,15.70
2015,06,25,07,54,15.60
2015,06,25,07,55,15.60
2015,06,25,07,56,15.60
2015,06,25,07,57,15.60
2015,06,25,07,58,15.60
2015,06,25,07,59,15.60
2015,06,25,08,00,15.60
2015,06,25,08,01,15.60
2015,06,25,08,02,15.70
2015,06,25,08,03,15.70
2015,06,25,08,04,15.70
2015,06,25,08,05,15.70
2015,06,25,08,06,15.80
2015,06,25,08,07,15.80
2015,06,25,08,08,15.80
2015,06,25,08,09,15.90
2015,06,25,08,10,15.90
2015,06,25,08,11,15.90
2015,06,25,08,12,16.00
2015,06,25,08,13,16.00
2015,06,25,08,14,16.10
2015,06,25,08,15,16.10
2015,06,25,08,16,16.10
2015,06,25,08,17,16.20
2015,06,25,08,18,16.30
2015,06,25,08,19,16.40
2015,06,25,08,20,16.50
2015,06,25,08,21,16.50
2015,06,25,08,22,16.60
2015,06,25,08,23,16.70
2015,06,25,08,24,16.80
2015,06,25,08,25,16.80
2015,06,25,08,26,16.90
2015,06,25,08,27,16.90
2015,06,25,08,28,16.90
2015,06,25,08,29,17.00
2015,06,25,08,30,17.00
2015,06,25,08,31,17.00
2015,06,25,08,32,17.10
2015,06,25,08,33,17.10
2015,06,25,08,34,17.10
2015,06,25,08,35,17.20
2015,06,25,08,36,17.20
2015,06,25,08,37,17.30
2015,06,25,08,38,17.30
2015,06,25,08,39,17.40
2015,06,25,08,40,17.40
2015,06,25,08,41,17.50
2015,06,25,08,42,17.60
2015,06,25,08,43,17.70
2015,06,25,08,44,17.80
2015,06,25,08,45,17.90
2015,06,25,08,46,18.00
2015,06,25,08,47,18.10
2015,06,25,08,48,18.20
2015,06,25,08,49,18.30
2015,06,25,08,50,18.40
2015,06,25,08,51,18.50
2015,06,25,08,52,18.60
2015,06,25,08,53,18.60
2015,06,25,08,54,18.70
2015,06,25,08,55,18.70
2015,06,25,08,56,18.70
2015,06,25,08,57,18.70
2015,06,25,08,58,18.70
2015,06,25,08,59,18.70
2015,06,25,09,00,18.70
2015,06,25,09,01,18.70
2015,06,25,09,02,18.70
2015,06,25,09,03,18.70
2015,06,25,09,04,18.60
2015,06,25,09,05,18.60
2015,06,25,09,06,18.60
2015,06,25,09,07,18.60
2015,06,25,09,08,18.70
2015,06,25,09,09,18.70
2015,06,25,09,10,18.70
2015,06,25,09,11,18.80
2015,06,25,09,12,18.80
2015,06,25,09,13,18.80
2015,06,25,09,14,18.80
2015,06,25,09,15,18.90
2015,06,25,09,16,18.90
2015,06,25,09,17,18.90
2015,06,25,09,18,19.00
2015,06,25,09,19,19.00
2015,06,25,09,20,19.00
2015,06,25,09,21,19.00
2015,06,25,09,22,19.00
2015,06,25,09,23,19.00
2015,06,25,09,24,19.10
2015,06,25,09,25,19.10
2015,06,25,09,26,19.10
2015,06,25,09,27,19.20
2015,06,25,09,28,19.20
2015,06,25,09,29,19.20
2015,06,25,09,30,19.20
2015,06,25,09,31,19.30
2015,06,25,09,32,19.30
2015,06,25,09,33,19.30
2015,06,25,09,34,19.30
2015,06,25,09,35,19.20
2015,06,25,09,36,19.20
2015,06,25,09,37,19.10
2015,06,25,09,38,19.10
2015,06,25,09,39,19.10
2015,06,25,09,40,19.10
2015,06,25,09,41,19.00
2015,06,25,09,42,19.00
2015,06,25,09,43,18.90
2015,06,25,09,44,18.90
2015,06,25,09,45,18.80
2015,06,25,09,46,18.70
2015,06,25,09,47,18.70
2015,06,25,09,48,18.70
2015,06,25,09,49,18.70
2015,06,25,09,50,18.70
2015,06,25,09,51,18.80
2015,06,25,09,52,18.80
2015,06,25,09,53,18.90
2015,06,25,09,54,18.90
2015,06,25,09,55,19.00
2015,06,25,09,56,19.00
2015,06,25,09,57,19.10
2015,06,25,09,58,19.20
2015,06,25,09,59,19.20
2015,06,25,10,00,19.30
2015,06,25,10,01,19.30
2015,06,25,10,02,19.30
2015,06,25,10,03,19.40
2015,06,25,10,04,19.40
2015,06,25,10,05,19.40
2015,06,25,10,06,19.40
2015,06,25,10,07,19.40
2015,06,25,10,08,19.50
2015,06,25,10,09,19.50
2015,06,25,10,10,19.50
2015,06,25,10,11,19.60
2015,06,25,10,12,19.60
2015,06,25,10,13,19.70
2015,06,25,10,14,19.70
2015,06,25,10,15,19.70
2015,06,25,10,16,19.80
2015,06,25,10,17,19.80
2015,06,25,10,18,19.80
2015,06,25,10,19,19.80
2015,06,25,10,20,19.80
2015,06,25,10,21,19.80
2015,06,25,10,22,19.90
2015,06,25,10,23,20.00
2015,06,25,10,24,20.10
2015,06,25,10,25,20.20
2015,06,25,10,26,20.30
2015,06,25,10,27,20.40
2015,06,25,10,28,20.50
2015,06,25,10,29,20.60
2015,06,25,10,30,20.60
2015,06,25,10,31,20.50
2015,06,25,10,32,20.30
2015,06,25,10,33,20.20
2015,06,25,10,34,20.10
2015,06,25,10,35,20.00
2015,06,25,10,36,20.00
2015,06,25,10,37,19.90
2015,06,25,10,38,19.90
2015,06,25,10,39,19.80
2015,06,25,10,40,19.80
2015,06,25,10,41,19.90
2015,06,25,10,42,19.90
2015,06,25,10,43,19.90
2015,06,25,10,44,20.00
2015,06,25,10,45,20.10
2015,06,25,10,46,20.10
2015,06,25,10,47,20.20
2015,06,25,10,48,20.20
2015,06,25,10,49,20.30
2015,06,25,10,50,20.30
2015,06,25,10,51,20.40
2015,06,25,10,52,20.50
2015,06,25,10,53,20.60
2015,06,25,10,54,20.70
2015,06,25,10,55,20.80
2015,06,25,10,56,20.80
2015,06,25,10,57,20.80
2015,06,25,10,58,20.80
2015,06,25,10,59,20.80
2015,06,25,11,00,20.70
2015,06,25,11,01,20.70
2015,06,25,11,02,20.60
2015,06,25,11,03,20.70
2015,06,25,11,04,20.70
2015,06,25,11,05,20.80
2015,06,25,11,06,20.90
2015,06,25,11,07,21.00
2015,06,25,11,08,21.10
2015,06,25,11,09,21.10
2015,06,25,11,10,21.10
2015,06,25,11,11,21.20
2015,06,25,11,12,21.20
2015,06,25,11,13,21.20
2015,06,25,11,14,21.20
2015,06,25,11,15,21.10
2015,06,25,11,16,21.10
2015,06,25,11,17,21.00
2015,06,25,11,18,20.90
2015,06,25,11,19,20.90
2015,06,25,11,20,20.90
2015,06,25,11,21,20.90
2015,06,25,11,22,21.00
2015,06,25,11,23,21.10
2015,06,25,11,24,21.10
2015,06,25,11,25,21.10
2015,06,25,11,26,21.10
2015,06,25,11,27,21.00
2015,06,25,11,28,21.00
2015,06,25,11,29,20.90
2015,06,25,11,30,20.80
2015,06,25,11,31,20.80
2015,06,25,11,32,20.70
2015,06,25,11,33,20.70
2015,06,25,11,34,20.70
2015,06,25,11,35,20.80
2015,06,25,11,36,20.80
2015,06,25,11,37,20.80
2015,06,25,11,38,20.80
2015,06,25,11,39,20.80
2015,06,25,11,40,20.70
2015,06,25,11,41,20.60
2015,06,25,11,42,20.50
2015,06,25,11,43,20.30
2015,06,25,11,44,20.10
2015,06,25,11,45,19.80
2015,06,25,11,46,19.60
2015,06,25,11,47,19.40
2015,06,25,11,48,19.30
2015,06,25,11,49,19.20
2015,06,25,11,50,19.20
2015,06,25,11,51,19.20
2015,06,25,11,52,19.20
2015,06,25,11,53,19.30
2015,06,25,11,54,19.30
2015,06,25,11,55,19.50
2015,06,25,11,56,19.60
2015,06,25,11,57,19.70
2015,06,25,11,58,19.90
2015,06,25,11,59,20.00
2015,06,25,12,00,20.10
2015,06,25,12,01,20.20
2015,06,25,12,02,20.30
2015,06,25,12,03,20.30
2015,06,25,12,04,20.40
2015,06,25,12,05,20.40
2015,06,25,12,06,20.40
2015,06,25,12,07,20.40
2015,06,25,12,08,20.50
2015,06,25,12,09,20.50
2015,06,25,12,10,20.60
2015,06,25,12,11,20.60
2015,06,25,12,12,20.70
2015,06,25,12,13,20.80
2015,06,25,12,14,21.00
2015,06,25,12,15,21.10
2015,06,25,12,16,21.20
2015,06,25,12,17,21.30
2015,06,25,12,18,21.30
2015,06,25,12,19,21.30
2015,06,25,12,20,21.30
2015,06,25,12,21,21.30
2015,06,25,12,22,21.30
2015,06,25,12,23,21.40
2015,06,25,12,24,21.50
2015,06,25,12,25,21.60
2015,06,25,12,26,21.80
2015,06,25,12,27,21.90
2015,06,25,12,28,22.00
2015,06,25,12,29,22.20
2015,06,25,12,30,22.30
2015,06,25,12,31,22.30
2015,06,25,12,32,22.40
2015,06,25,12,33,22.40
2015,06,25,12,34,22.40
2015,06,25,12,35,22.50
2015,06,25,12,36,22.60
2015,06,25,12,37,22.70
2015,06,25,12,38,22.80
2015,06,25,12,39,22.80
2015,06,25,12,40,22.80
2015,06,25,12,41,22.80
2015,06,25,12,42,22.70
2015,06,25,12,43,22.70
2015,06,25,12,44,22.70
2015,06,25,12,45,22.60
2015,06,25,12,46,22.60
2015,06,25,12,47,22.50
2015,06,25,12,48,22.50
2015,06,25,12,49,22.50
2015,06,25,12,50,22.40
2015,06,25,12,51,22.50
2015,06,25,12,52,22.50
2015,06,25,12,53,22.50
2015,06,25,12,54,22.60
2015,06,25,12,55,22.60
2015,06,25,12,56,22.60
2015,06,25,12,57,22.50
2015,06,25,12,58,22.50
2015,06,25,12,59,22.40
2015,06,25,13,00,22.40
2015,06,25,13,01,22.40
2015,06,25,13,02,22.40
2015,06,25,13,03,22.30
2015,06,25,13,04,22.40
2015,06,25,13,05,22.40
2015,06,25,13,06,22.40
2015,06,25,13,07,22.40
2015,06,25,13,08,22.50
2015,06,25,13,09,22.50
2015,06,25,13,10,22.60
2015,06,25,13,11,22.70
2015,06,25,13,12,22.80
2015,06,25,13,13,22.80
2015,06,25,13,14,22.80
2015,06,25,13,15,22.80
2015,06,25,13,16,22.90
2015,06,25,13,17,23.00
2015,06,25,13,18,23.00
2015,06,25,13,19,23.10
2015,06,25,13,20,23.20
2015,06,25,13,21,23.20
2015,06,25,13,22,23.30
2015,06,25,13,23,23.30
2015,06,25,13,24,23.30
2015,06,25,13,25,23.40
2015,06,25,13,26,23.40
2015,06,25,13,27,23.40
2015,06,25,13,28,23.50
2015,06,25,13,29,23.50
2015,06,25,13,30,23.60
2015,06,25,13,31,23.60
2015,06,25,13,32,23.60
2015,06,25,13,33,23.60
2015,06,25,13,34,23.60
2015,06,25,13,35,23.60
2015,06,25,13,36,23.70
2015,06,25,13,37,23.80
2015,06,25,13,38,23.80
2015,06,25,13,39,23.90
2015,06,25,13,40,24.00
2015,06,25,13,41,24.00
2015,06,25,13,42,24.10
2015,06,25,13,43,24.20
2015,06,25,13,44,24.40
2015,06,25,13,45,24.50
2015,06,25,13,46,24.70
2015,06,25,13,47,24.80
2015,06,25,13,48,24.90
2015,06,25,13,49,24.90
2015,06,25,13,50,25.10
2015,06,25,13,51,25.20
2015,06,25,13,52,25.20
2015,06,25,13,53,25.30
2015,06,25,13,54,25.30
2015,06,25,13,55,25.30
2015,06,25,13,56,25.30
2015,06,25,13,57,25.30
2015,06,25,13,58,25.40
2015,06,25,13,59,25.50
2015,06,25,14,00,25.60
2015,06,25,14,01,25.70
2015,06,25,14,02,25.80
2015,06,25,14,03,25.90
2015,06,25,14,04,25.90
2015,06,25,14,05,26.00
2015,06,25,14,06,26.00
2015,06,25,14,07,26.00
2015,06,25,14,08,26.10
2015,06,25,14,09,26.20
2015,06,25,14,10,26.10
2015,06,25,14,11,26.00
2015,06,25,14,12,25.90
2015,06,25,14,13,25.80
2015,06,25,14,14,25.70
2015,06,25,14,15,25.70
2015,06,25,14,16,25.70
2015,06,25,14,17,25.70
2015,06,25,14,18,25.70
2015,06,25,14,19,25.70
2015,06,25,14,20,25.80
2015,06,25,14,21,25.80
2015,06,25,14,22,25.90
2015,06,25,14,23,25.90
2015,06,25,14,24,25.80
2015,06,25,14,25,25.80
2015,06,25,14,26,25.90
2015,06,25,14,27,26.00
2015,06,25,14,28,26.10
2015,06,25,14,29,26.10
2015,06,25,14,30,26.00
2015,06,25,14,31,25.80
2015,06,25,14,32,25.50
2015,06,25,14,33,25.30
2015,06,25,14,34,25.10
2015,06,25,14,35,25.00
2015,06,25,14,36,24.90
2015,06,25,14,37,24.90
2015,06,25,14,38,24.80
2015,06,25,14,39,24.80
2015,06,25,14,40,24.80
2015,06,25,14,41,24.80
2015,06,25,14,42,24.80
2015,06,25,14,43,24.80
2015,06,25,14,44,24.80
2015,06,25,14,45,24.80
2015,06,25,14,46,24.80
2015,06,25,14,47,24.80
2015,06,25,14,48,24.70
2015,06,25,14,49,24.60
2015,06,25,14,50,24.60
2015,06,25,14,51,24.60
2015,06,25,14,52,24.60
2015,06,25,14,53,24.50
2015,06,25,14,54,24.40
2015,06,25,14,55,24.40
2015,06,25,14,56,24.30
2015,06,25,14,57,24.30
2015,06,25,14,58,24.30
2015,06,25,14,59,24.30
2015,06,25,15,00,24.20
2015,06,25,15,01,24.20
2015,06,25,15,02,24.20
2015,06,25,15,03,24.20
2015,06,25,15,04,24.30
2015,06,25,15,05,24.50
2015,06,25,15,06,24.60
2015,06,25,15,07,24.80
2015,06,25,15,08,24.90
2015,06,25,15,09,25.10
2015,06,25,15,10,25.20
2015,06,25,15,11,25.30
2015,06,25,15,12,25.40
2015,06,25,15,13,25.40
2015,06,25,15,14,25.40
2015,06,25,15,15,25.50
2015,06,25,15,16,25.50
2015,06,25,15,17,25.60
2015,06,25,15,18,25.50
2015,06,25,15,19,25.50
2015,06,25,15,20,25.40
2015,06,25,15,21,25.40
2015,06,25,15,22,25.40
2015,06,25,15,23,25.50
2015,06,25,15,24,25.50
2015,06,25,15,25,25.50
2015,06,25,15,26,25.50
2015,06,25,15,27,25.40
2015,06,25,15,28,25.40
2015,06,25,15,29,25.50
2015,06,25,15,30,25.60
2015,06,25,15,31,25.60
2015,06,25,15,32,25.70
2015,06,25,15,33,25.80
2015,06,25,15,34,25.90
2015,06,25,15,35,26.10
2015,06,25,15,36,26.20
2015,06,25,15,37,26.20
2015,06,25,15,38,26.20
2015,06,25,15,39,26.20
2015,06,25,15,40,26.20
2015,06,25,15,41,26.20
2015,06,25,15,42,26.10
2015,06,25,15,43,26.00
2015,06,25,15,44,26.00
2015,06,25,15,45,25.90
2015,06,25,15,46,25.80
2015,06,25,15,47,25.80
2015,06,25,15,48,25.70
2015,06,25,15,49,25.70
2015,06,25,15,50,25.70
2015,06,25,15,51,25.70
2015,06,25,15,52,25.70
2015,06,25,15,53,25.70
2015,06,25,15,54,25.70
2015,06,25,15,55,25.80
2015,06,25,15,56,25.90
2015,06,25,15,57,25.90
2015,06,25,15,58,26.00
2015,06,25,15,59,26.10
2015,06,25,16,00,26.10
2015,06,25,16,01,26.10
2015,06,25,16,02,26.10
2015,06,25,16,03,26.10
2015,06,25,16,04,26.20
2015,06,25,16,05,26.10
2015,06,25,16,06,26.10
2015,06,25,16,07,26.10
2015,06,25,16,08,26.00
2015,06,25,16,09,25.90
2015,06,25,16,10,25.90
2015,06,25,16,11,25.90
2015,06,25,16,12,26.00
2015,06,25,16,13,26.10
2015,06,25,16,14,26.10
2015,06,25,16,15,26.20
2015,06,25,16,16,26.30
2015,06,25,16,17,26.30
2015,06,25,16,18,26.30
2015,06,25,16,19,26.30
2015,06,25,16,20,26.30
2015,06,25,16,21,26.20
2015,06,25,16,22,26.20
2015,06,25,16,23,26.10
2015,06,25,16,24,26.00
2015,06,25,16,25,25.90
2015,06,25,16,26,25.80
2015,06,25,16,27,25.80
2015,06,25,16,28,25.80
2015,06,25,16,29,25.80
2015,06,25,16,30,25.80
2015,06,25,16,31,25.80
2015,06,25,16,32,25.80
2015,06,25,16,33,25.80
2015,06,25,16,34,25.80
2015,06,25,16,35,25.70
2015,06,25,16,36,25.60
2015,06,25,16,37,25.50
2015,06,25,16,38,25.50
2015,06,25,16,39,25.40
2015,06,25,16,40,25.30
2015,06,25,16,41,25.30
2015,06,25,16,42,25.20
2015,06,25,16,43,25.20
2015,06,25,16,44,25.30
2015,06,25,16,45,25.30
2015,06,25,16,46,25.30
2015,06,25,16,47,25.30
2015,06,25,16,48,25.30
2015,06,25,16,49,25.40
2015,06,25,16,50,25.40
2015,06,25,16,51,25.40
2015,06,25,16,52,25.40
2015,06,25,16,53,25.40
2015,06,25,16,54,25.40
2015,06,25,16,55,25.40
2015,06,25,16,56,25.40
2015,06,25,16,57,25.40
2015,06,25,16,58,25.40
2015,06,25,16,59,25.40
2015,06,25,17,00,25.50
2015,06,25,17,01,25.50
2015,06,25,17,02,25.50
2015,06,25,17,03,25.50
2015,06,25,17,04,25.50
2015,06,25,17,05,25.60
2015,06,25,17,06,25.60
2015,06,25,17,07,25.70
2015,06,25,17,08,25.80
2015,06,25,17,09,25.80
2015,06,25,17,10,25.70
2015,06,25,17,11,25.70
2015,06,25,17,12,25.70
2015,06,25,17,13,25.70
2015,06,25,17,14,25.70
2015,06,25,17,15,25.70
2015,06,25,17,16,25.70
2015,06,25,17,17,25.70
2015,06,25,17,18,25.60
2015,06,25,17,19,25.60